DW1901 Weather Reports


Display with metric or nautical units.
time (UTC)temp
F
wind
direction
speed
MPH
gust
MPH
rain 1hr
in
rain 24hr
in
rain mn
in
humidity
%
barometer
mb
20260505112822 55 360 0.0 1.0 0.00 0.01 0.01 82 1009.9
20260505110922 54 360 1.0 1.0 0.00 0.00 0.00 82 1010.1
20260505101222 50 360 0.0 0.0 0.00 0.00 0.00 82 1010.0
20260505095322 51 360 0.0 1.0 0.00 0.00 0.00 82 1009.8
20260505093442 51 360 0.0 0.0 0.00 0.00 0.00 82 1009.3
20260505091522 50 360 0.0 3.0 0.00 0.00 0.00 81 1009.2
20260505085622 50 360 0.0 1.0 0.00 0.00 0.00 81 1009.2
20260505083722 51 360 0.0 0.0 0.00 0.00 0.00 80 1009.2
20260505081822 51 360 0.0 0.0 0.00 0.00 0.00 80 1009.1
20260505075922 52 360 0.0 0.0 0.00 0.00 0.00 79 1009.3
20260505074042 52 360 0.0 0.0 0.00 0.00 0.00 78 1009.3
20260505072122 53 360 0.0 0.0 0.00 0.00 0.00 77 1009.3
20260505070222 53 360 0.0 0.0 0.00 0.00 0.00 75 1009.2
20260505064322 54 360 0.0 0.0 0.00 0.00 0.00 73 1009.1
20260505062502 55 360 0.0 0.0 0.00 0.00 0.00 72 1009.3
20260505060522 56 360 0.0 0.0 0.00 0.00 0.00 69 1009.5
20260505054622 57 360 0.0 0.0 0.00 0.00 0.00 66 1009.5
20260505052722 58 360 0.0 1.0 0.00 0.00 0.00 64 1009.6
20260505050821 60 360 0.0 1.0 0.00 0.00 0.00 61 1009.7
20260505041142 62 360 0.0 3.0 0.00 0.00 0.00 56 1009.7
20260505035625 62 360 0.0 6.0 0.00 0.00 0.00 54 1009.8
20260505033724 63 360 0.0 4.0 0.00 0.00 0.00 53 1009.8
20260505031844 64 360 3.0 6.0 0.00 0.00 0.00 52 1010.0
20260505025924 64 360 1.0 7.0 0.00 0.00 0.00 51 1010.0
20260505024025 64 360 0.0 7.0 0.00 0.00 0.00 51 1009.9
20260505022124 64 360 1.0 8.0 0.00 0.00 0.00 51 1010.1
20260505020224 65 360 2.0 8.0 0.00 0.00 0.00 50 1010.0
20260505014325 66 360 1.0 6.0 0.00 0.00 0.00 47 1009.9
20260505012424 67 360 1.0 4.0 0.00 0.00 0.00 40 1009.6
20260505010525 68 360 0.0 3.0 0.00 0.00 0.00 39 1009.3
20260505004624 68 360 3.0 5.0 0.00 0.00 0.00 38 1009.2
20260505002724 69 360 6.0 7.0 0.00 0.00 0.00 38 1008.8
20260505000824 69 360 1.0 6.0 0.00 0.00 0.00 37 1008.5
20260504234924 70 360 5.0 5.0 0.00 0.00 0.00 37 1008.1
20260504233024 71 360 0.0 1.0 0.00 0.00 0.00 36 1007.9
20260504231124 72 360 2.0 11.0 0.00 0.00 0.00 35 1007.7
20260504225225 72 360 2.0 10.0 0.00 0.00 0.00 33 1007.5
20260504223344 73 360 1.0 5.0 0.00 0.00 0.00 34 1007.6
20260504221424 73 360 2.0 6.0 0.00 0.00 0.00 33 1007.6
20260504215524 73 360 2.0 11.0 0.00 0.00 0.00 32 1007.9
20260504213624 73 360 4.0 8.0 0.00 0.00 0.00 33 1008.1
20260504211724 73 360 2.0 11.0 0.00 0.00 0.00 34 1008.1
20260504205824 73 360 4.0 10.0 0.00 0.00 0.00 34 1008.1
20260504203924 73 360 3.0 10.0 0.00 0.00 0.00 35 1008.2
20260504202024 73 360 8.0 10.0 0.00 0.00 0.00 33 1008.2
20260504200124 73 360 5.0 5.0 0.00 0.00 0.00 31 1008.4
20260504194224 73 360 1.0 13.0 0.00 0.00 0.00 32 1008.5
20260504192324 72 360 4.0 10.0 0.00 0.00 0.00 32 1008.7
20260504190424 72 360 3.0 7.0 0.00 0.00 0.00 34 1008.9
20260504184525 72 360 0.0 14.0 0.00 0.00 0.00 36 1009.2
20260504182624 72 360 3.0 10.0 0.00 0.00 0.00 35 1009.4
20260504180724 71 360 4.0 10.0 0.00 0.00 0.00 34 1009.4
20260504174825 70 360 3.0 13.0 0.00 0.00 0.00 36 1009.7
20260504172924 70 360 3.0 10.0 0.00 0.00 0.00 35 1010.1
20260504171024 69 360 5.0 10.0 0.00 0.00 0.00 37 1010.3
20260504130324 57 360 2.0 4.0 0.00 0.00 0.00 50 1013.1